This is the latest recevied weather packets stored in our database for station/object TONGUE. If no packets are shown the sender has not sent any weather packets the latest 10 day(s).
| Time | Temp. | Humidity | Pressure | Rain* | Wind** | Luminosity | Snow |
|---|---|---|---|---|---|---|---|
| 1777657203 | 11.67° C | 91% | 0 hPa | - | - | - | - |
| 1777656602 | 12.22° C | 92% | 0 hPa | - | - | - | - |
| 1777656003 | 11.67° C | 92% | 0 hPa | - | - | - | - |
| 1777655403 | 11.67° C | 92% | 0 hPa | - | - | - | - |
| 1777654804 | 11.67° C | 91% | 0 hPa | - | - | - | - |
| 1777654203 | 11.67° C | 93% | 0 hPa | - | - | - | - |
| 1777653602 | 11.67° C | 93% | 0 hPa | - | - | - | - |
| 1777653003 | 11.67° C | 94% | 0 hPa | - | - | - | - |
| 1777652403 | 11.67° C | 93% | 0 hPa | - | - | - | - |
| 1777651803 | 11.67° C | 90% | 0 hPa | - | - | - | - |
| 1777651204 | 11.67° C | 90% | 0 hPa | - | - | - | - |
| 1777650603 | 11.67° C | 92% | 0 hPa | - | - | - | - |
| 1777650003 | 11.67° C | 91% | 0 hPa | - | - | - | - |
| 1777649403 | 11.67° C | 93% | 0 hPa | - | - | - | - |
| 1777648803 | 11.67° C | 100% | 0 hPa | - | - | - | - |
| 1777648203 | 11.11° C | - | - | - | - | - | - |
| 1777647604 | 11.11° C | 100% | 0 hPa | - | - | - | - |
| 1777647003 | 10.56° C | 99% | 0 hPa | - | - | - | - |
| 1777646402 | 10.56° C | 99% | 0 hPa | - | - | - | - |
| 1777645803 | 10.56° C | 99% | 0 hPa | - | - | - | - |
| 1777645203 | 10° C | 100% | 0 hPa | - | - | - | - |
| 1777644603 | 10° C | 99% | 0 hPa | - | - | - | - |
| 1777644004 | 9.44° C | 99% | 0 hPa | - | - | - | - |
| 1777643403 | 9.44° C | 100% | 0 hPa | - | - | - | - |
| 1777642802 | 10° C | 99% | 0 hPa | - | - | - | - |
* Rain since midnight (hover to see other rain measurements)
** Current wind speed in m/s (hover to see current wind gust speed)